EW7070 Weather Reports


time (UTC)temp
F
wind
direction
speed
knots
gust
knots
rain 1hr
in
rain 24hr
in
rain mn
in
humidity
%
barometer
mb
20260505051746 72 231 1.7 5.2 0.00 0.02 0.00 85 1014.9
20260505051253 72 284 0.9 4.3 0.00 0.02 0.00 85 1014.8
20260505051245 72 220 1.7 5.2 0.00 0.02 0.00 85 1014.8
20260505050244 72 290 0.9 2.6 0.00 0.02 0.00 85 1014.9
20260505041056 70 237 0.9 3.5 0.00 0.02 0.00 91 1015.1
20260505040539 69 141 0.9 6.1 0.00 0.02 0.00 92 1015.0
20260505040025 69 244 0.9 6.1 0.00 0.02 0.00 93 1015.1
20260505035525 69 115 0.9 4.3 0.00 0.02 0.00 93 1015.1
20260505035400 68 204 0.9 3.5 0.00 0.02 0.00 95 1015.1
20260505035252 68 159 0.9 4.3 0.00 0.02 0.00 94 1015.0
20260505034249 68 171 0.9 3.5 0.00 0.02 0.00 95 1015.2
20260505033746 68 209 0.9 3.5 0.00 0.02 0.00 95 1015.1
20260505032948 67 172 0.9 3.5 0.00 0.02 0.00 96 1015.0
20260505032449 67 57 0.0 3.5 0.00 0.02 0.00 96 1015.0
20260505031949 67 241 0.0 2.6 0.00 0.02 0.00 96 1015.1
20260505031438 67 45 0.0 2.6 0.00 0.02 0.00 97 1015.0
20260505030913 67 10 0.9 4.3 0.00 0.02 0.00 97 1015.1
20260505030402 67 218 1.7 4.3 0.00 0.02 0.00 97 1015.0
20260505030335 67 224 0.9 3.5 0.00 0.02 0.02 98 1015.1
20260505025605 67 220 1.7 7.0 0.00 0.02 0.02 98 1015.0
20260505025051 67 208 0.9 7.0 0.00 0.02 0.02 98 1015.0
20260505024310 66 244 0.0 1.7 0.00 0.02 0.02 97 1015.1
20260505023753 66 258 0.0 1.7 0.00 0.02 0.02 97 1015.0
20260505023253 66 85 0.0 2.6 0.00 0.02 0.02 97 1015.1
20260505022753 66 297 0.0 2.6 0.00 0.02 0.02 97 1015.1
20260505022253 66 145 0.9 3.5 0.00 0.02 0.02 97 1015.1
20260505021736 66 347 0.0 5.2 0.00 0.02 0.02 97 1015.0
20260505021729 66 29 0.9 5.2 0.00 0.02 0.02 97 1015.1
20260505020715 66 320 0.0 1.7 0.00 0.02 0.02 97 1015.1
20260505020211 66 320 0.0 2.6 0.00 0.02 0.02 97 1015.1
20260505015706 66 282 0.0 2.6 0.00 0.02 0.02 97 1015.0
20260505015208 67 261 0.9 4.3 0.00 0.02 0.02 98 1014.9
20260505014651 67 121 0.9 4.3 0.00 0.02 0.02 98 1015.0
20260505014149 67 4 0.9 4.3 0.00 0.02 0.02 98 1014.9
20260505013646 67 4 1.7 4.3 0.00 0.02 0.02 98 1015.0
20260505013136 67 182 0.9 4.3 0.00 0.02 0.02 98 1014.9
20260505012906 67 158 0.0 2.6 0.00 0.02 0.02 98 1014.9
20260505012135 67 34 0.9 1.7 0.00 0.02 0.02 98 1015.0
20260505011619 66 177 0.9 4.3 0.00 0.02 0.02 98 1015.0
20260505011101 66 212 0.0 1.7 0.00 0.02 0.02 98 1014.8
20260505011049 66 244 0.0 3.5 0.00 0.02 0.02 98 1014.9
20260505010040 66 177 0.0 1.7 0.00 0.02 0.02 98 1014.9
20260505005539 66 187 0.0 1.7 0.00 0.02 0.02 97 1014.7
20260505005017 66 72 0.9 3.5 0.00 0.02 0.02 97 1014.7
20260505004515 66 97 0.9 3.5 0.00 0.02 0.02 98 1014.7
20260505004014 66 187 0.9 3.5 0.00 0.02 0.02 97 1014.6
20260505003512 66 258 0.0 1.7 0.00 0.02 0.02 97 1014.6
20260505003014 66 331 0.0 0.9 0.00 0.02 0.02 97 1014.7
20260505002456 66 346 0.0 2.6 0.00 0.02 0.02 97 1014.7
20260505001930 66 73 0.0 2.6 0.00 0.02 0.02 97 1014.7
20260505001413 66 5 0.0 0.0 0.00 0.02 0.02 97 1014.7
20260505000906 66 5 0.0 3.5 0.00 0.02 0.02 97 1014.8
20260505000634 66 5 0.9 3.5 0.00 0.02 0.02 97 1014.7
20260504235902 66 6 0.9 2.6 0.00 0.02 0.02 97 1014.6
20260504235402 66 164 0.0 1.7 0.00 0.02 0.02 97 1014.6
20260504234901 66 273 0.0 1.7 0.00 0.02 0.02 97 1014.5
20260504234344 67 273 0.0 1.7 0.00 0.02 0.02 97 1014.7
20260504233842 67 84 0.9 3.5 0.00 0.02 0.02 97 1014.8
20260504233329 66 70 0.9 3.5 0.00 0.02 0.02 97 1014.9
20260504232804 67 337 0.0 1.7 0.00 0.02 0.02 97 1014.9
20260504232533 67 1 0.0 0.9 0.00 0.02 0.02 97 1014.7
20260504231802 67 111 0.9 2.6 0.00 0.02 0.02 97 1014.6
20260504231235 67 49 0.9 3.5 0.01 0.02 0.02 97 1014.6
20260504230733 67 262 0.0 3.5 0.01 0.02 0.02 97 1014.6
20260504230229 67 97 0.0 1.7 0.01 0.02 0.02 96 1014.5
20260504225659 66 97 0.0 1.7 0.01 0.02 0.02 96 1014.6
20260504225156 67 44 0.0 0.9 0.01 0.02 0.02 96 1014.5
20260504224634 67 44 0.0 1.7 0.01 0.02 0.02 96 1014.7
20260504224134 67 44 0.0 1.7 0.01 0.02 0.02 96 1014.5
20260504223631 67 79 0.0 0.0 0.01 0.02 0.02 96 1014.4
20260504223130 67 79 0.0 0.0 0.01 0.02 0.02 96 1014.4
20260504222604 67 79 0.0 0.0 0.01 0.02 0.02 96 1014.3
20260504222034 67 79 0.0 0.0 0.01 0.02 0.02 96 1014.3
20260504221531 67 79 0.0 0.0 0.00 0.01 0.02 96 1014.2
20260504221001 67 4 0.0 0.0 0.00 0.01 0.01 96 1014.1
20260504220457 67 4 0.0 1.7 0.00 0.01 0.01 96 1014.1
20260504220203 67 4 0.9 1.7 0.00 0.01 0.01 95 1013.9
20260504215404 67 214 0.9 2.6 0.00 0.01 0.01 95 1014.0
20260504214834 67 302 1.7 3.5 0.00 0.01 0.01 95 1014.1
20260504214604 67 194 0.9 3.5 0.00 0.01 0.01 95 1014.0
20260504213815 67 24 0.9 1.7 0.00 0.01 0.01 95 1014.0
20260504213318 67 266 0.9 1.7 0.00 0.01 0.01 95 1014.0
20260504212749 67 335 0.0 1.7 0.00 0.01 0.01 94 1014.0
20260504212520 67 212 0.0 1.7 0.00 0.01 0.01 94 1014.0
20260504211718 67 146 0.9 2.6 0.00 0.01 0.01 94 1013.9
20260504211428 67 146 0.9 2.6 0.00 0.01 0.01 94 1013.9
20260504210622 67 134 0.9 2.6 0.00 0.01 0.01 94 1013.9
20260504210347 68 261 0.9 2.6 0.00 0.01 0.01 94 1013.6
20260504205615 68 291 0.0 2.6 0.00 0.01 0.01 93 1013.6
20260504205112 68 118 0.0 2.6 0.00 0.01 0.01 93 1013.6
20260504204557 68 118 0.9 3.5 0.00 0.01 0.01 93 1013.6
20260504204324 68 118 0.9 3.5 0.00 0.01 0.01 93 1013.6
20260504203822 68 347 0.0 1.7 0.00 0.01 0.01 93 1013.4
20260504203048 69 299 0.0 1.7 0.00 0.01 0.01 93 1013.3
20260504202544 69 290 0.9 1.7 0.00 0.01 0.01 93 1013.6
20260504202012 69 231 0.9 1.7 0.00 0.01 0.01 93 1013.7
20260504201508 69 218 0.0 1.7 0.00 0.01 0.01 93 1013.5
20260504201001 69 153 0.0 1.7 0.00 0.01 0.01 93 1013.7
20260504200713 69 153 0.0 0.0 0.00 0.01 0.01 92 1013.6
20260504195941 69 153 0.0 1.7 0.00 0.01 0.01 93 1013.6
20260504195442 69 153 0.0 1.7 0.00 0.01 0.01 93 1013.4
20260504194939 69 236 0.0 1.7 0.00 0.01 0.01 92 1013.4
20260504194439 69 236 0.9 1.7 0.00 0.01 0.01 92 1013.5
20260504193912 69 131 0.0 1.7 0.00 0.01 0.01 92 1013.4
20260504193346 69 131 0.0 1.7 0.00 0.01 0.01 93 1013.4
20260504192819 69 131 0.0 1.7 0.00 0.01 0.01 92 1013.4
20260504192549 69 131 0.9 1.7 0.00 0.01 0.01 92 1013.4
20260504191753 69 247 0.0 1.7 0.00 0.01 0.01 93 1013.6
20260504191230 69 247 0.9 2.6 0.00 0.01 0.01 93 1013.6
20260504190730 69 291 0.9 2.6 0.00 0.01 0.01 93 1013.5
20260504190222 69 241 0.9 2.6 0.00 0.01 0.01 92 1013.6
20260504185709 69 241 0.9 2.6 0.01 0.01 0.01 92 1013.7
20260504185206 69 248 0.0 1.7 0.01 0.01 0.01 92 1013.6
20260504184706 69 248 0.0 1.7 0.01 0.01 0.01 91 1013.7
20260504184435 69 248 0.0 1.7 0.01 0.01 0.01 91 1013.7
20260504183637 69 336 0.0 0.9 0.01 0.01 0.01 91 1013.8
20260504183112 69 323 0.9 2.6 0.01 0.01 0.01 91 1013.9
20260504182559 69 323 1.7 3.5 0.01 0.01 0.01 89 1014.0
20260504182328 69 323 1.7 3.5 0.01 0.01 0.01 88 1014.0
20260504181556 69 346 1.7 3.5 0.01 0.01 0.01 88 1014.0
20260504181057 69 13 1.7 6.1 0.01 0.01 0.01 87 1014.1
20260504180533 70 336 1.7 6.1 0.01 0.01 0.01 86 1014.1
20260504180035 70 293 3.5 6.1 0.00 0.00 0.00 86 1014.2
20260504175533 70 302 4.3 8.7 0.00 0.00 0.00 84 1014.1
20260504175032 71 18 2.6 8.7 0.00 0.00 0.00 83 1014.0
20260504174738 71 264 0.9 3.5 0.00 0.00 0.00 82 1014.0
20260504173943 71 305 0.9 2.6 0.00 0.00 0.00 84 1014.0
20260504173443 71 305 0.9 2.6 0.00 0.00 0.00 83 1013.9
20260504172941 71 285 0.9 2.6 0.00 0.00 0.00 83 1014.0
20260504172431 71 285 0.9 2.6 0.00 0.00 0.00 82 1013.9
20260504171929 72 285 0.9 2.6 0.00 0.00 0.00 81 1014.0
20260504171429 72 283 0.9 2.6 0.00 0.00 0.00 81 1014.1
20260504171133 72 292 0.0 1.7 0.00 0.00 0.00 81 1014.0
20260504170352 72 258 0.9 2.6 0.00 0.00 0.00 81 1013.9
20260504160200 72 298 2.6 6.1 0.00 0.00 0.00 77 1014.6
20260504151116 73 314 3.5 7.8 0.00 0.00 0.00 76 1015.2
20260504150616 73 348 3.5 7.8 0.00 0.00 0.00 75 1015.1
20260504150114 72 350 2.6 7.0 0.00 0.00 0.00 76 1015.2
20260504140932 66 120 0.9 4.3 0.00 0.00 0.00 89 1015.7
20260504140636 65 224 1.7 4.3 0.00 0.00 0.00 92 1015.8
20260504130351 56 88 0.9 2.6 0.00 0.00 0.00 99 1016.3
20260504110205 47 290 0.0 0.0 0.00 0.00 0.00 99 1015.8
20260504100453 45 290 0.0 0.0 0.00 0.00 0.00 98 1015.9
20260504081623 45 290 0.0 0.0 0.00 0.00 0.00 98 1015.7
20260504081055 45 290 0.0 0.0 0.00 0.00 0.00 98 1015.7
20260504080536 45 290 0.0 0.0 0.00 0.00 0.00 98 1015.7
20260504070346 45 290 0.0 0.0 0.00 0.00 0.00 97 1015.8
20260504060211 45 290 0.0 0.0 0.00 0.00 0.00 97 1016.3